Time,TemperatureF,DewpointF,PressureIn,WindDirection,WindDirectionDegrees,WindSpeedMPH,WindSpeedGustMPH,Humidity,HourlyPrecipIn,Conditions,Clouds,dailyrainin,SoftwareType,DateUTC
2013-05-04 00:01:00,40.0,27.0,-100.00,North,10,12.0,14.0,60,0.00,,,-99.99,,2013-05-04 06:01:00,
2013-05-04 00:11:00,40.0,26.0,-100.00,North,10,12.0,16.0,58,0.00,,,-99.99,,2013-05-04 06:11:00,
2013-05-04 00:21:00,40.0,26.0,-100.00,North,10,11.0,16.0,59,0.00,,,-99.99,,2013-05-04 06:21:00,
2013-05-04 00:32:00,40.0,26.0,-100.00,North,10,11.0,13.0,58,0.00,,,-99.99,,2013-05-04 06:32:00,
2013-05-04 00:41:00,40.0,26.0,-100.00,North,10,12.0,16.0,58,0.00,,,-99.99,,2013-05-04 06:41:00,
2013-05-04 00:52:00,39.0,26.0,-100.00,North,10,13.0,16.0,59,0.00,,,-99.99,,2013-05-04 06:52:00,
2013-05-04 01:01:00,39.0,26.0,-100.00,North,10,12.0,16.0,58,0.00,,,-99.99,,2013-05-04 07:01:00,
2013-05-04 01:11:00,38.0,25.0,-100.00,North,10,8.0,14.0,58,0.00,,,-99.99,,2013-05-04 07:11:00,
2013-05-04 01:21:00,38.0,24.0,-100.00,North,10,7.0,14.0,58,0.00,,,-99.99,,2013-05-04 07:21:00,
2013-05-04 01:32:00,38.0,25.0,-100.00,North,10,10.0,14.0,58,0.00,,,-99.99,,2013-05-04 07:32:00,
2013-05-04 01:52:00,37.0,25.0,-100.00,North,10,7.0,12.0,59,0.00,,,-99.99,,2013-05-04 07:52:00,
2013-05-04 02:01:00,38.0,25.0,-100.00,North,10,9.0,15.0,58,0.00,,,-99.99,,2013-05-04 08:01:00,
2013-05-04 02:11:00,38.0,25.0,-100.00,North,10,11.0,16.0,60,0.00,,,-99.99,,2013-05-04 08:11:00,
2013-05-04 02:21:00,37.0,26.0,-100.00,North,10,11.0,16.0,63,0.00,,,-99.99,,2013-05-04 08:21:00,
2013-05-04 02:31:00,37.0,26.0,-100.00,North,10,11.0,17.0,64,0.00,,,-99.99,,2013-05-04 08:31:00,
2013-05-04 02:41:00,37.0,26.0,-100.00,North,10,7.0,11.0,64,0.00,,,-99.99,,2013-05-04 08:41:00,
2013-05-04 02:52:00,37.0,26.0,-100.00,North,10,6.0,10.0,65,0.00,,,-99.99,,2013-05-04 08:52:00,
2013-05-04 03:02:00,37.0,27.0,-100.00,North,10,13.0,18.0,65,0.00,,,-99.99,,2013-05-04 09:02:00,
2013-05-04 03:11:00,37.0,26.0,-100.00,North,10,14.0,19.0,64,0.00,,,-99.99,,2013-05-04 09:11:00,
2013-05-04 03:21:00,38.0,26.0,-100.00,North,10,12.0,17.0,64,0.00,,,-99.99,,2013-05-04 09:21:00,
2013-05-04 03:32:00,38.0,27.0,-100.00,North,10,9.0,12.0,66,0.00,,,-99.99,,2013-05-04 09:32:00,
2013-05-04 03:42:00,38.0,28.0,-100.00,North,10,9.0,12.0,66,0.00,,,-99.99,,2013-05-04 09:42:00,
2013-05-04 03:52:00,38.0,28.0,-100.00,North,10,10.0,13.0,66,0.00,,,-99.99,,2013-05-04 09:52:00,
2013-05-04 04:02:00,38.0,27.0,-100.00,North,10,11.0,14.0,64,0.00,,,-99.99,,2013-05-04 10:02:00,
2013-05-04 04:12:00,38.0,27.0,-100.00,North,10,11.0,14.0,63,0.00,,,-99.99,,2013-05-04 10:12:00,
2013-05-04 04:22:00,38.0,27.0,-100.00,North,10,12.0,17.0,64,0.00,,,-99.99,,2013-05-04 10:22:00,
2013-05-04 04:33:00,38.0,27.0,-100.00,North,10,11.0,14.0,64,0.00,,,-99.99,,2013-05-04 10:33:00,
2013-05-04 04:52:00,39.0,27.0,-100.00,North,10,12.0,17.0,61,0.00,,,-99.99,,2013-05-04 10:52:00,
2013-05-04 05:02:00,39.0,26.0,-100.00,North,10,11.0,14.0,59,0.00,,,-99.99,,2013-05-04 11:02:00,
2013-05-04 05:11:00,39.0,26.0,-100.00,North,10,11.0,16.0,59,0.00,,,-99.99,,2013-05-04 11:11:00,
2013-05-04 05:21:00,39.0,27.0,-100.00,North,10,12.0,16.0,63,0.00,,,-99.99,,2013-05-04 11:21:00,
2013-05-04 05:32:00,38.0,27.0,-100.00,North,10,11.0,15.0,63,0.00,,,-99.99,,2013-05-04 11:32:00,
2013-05-04 05:42:00,38.0,27.0,-100.00,North,10,10.0,14.0,64,0.00,,,-99.99,,2013-05-04 11:42:00,
2013-05-04 05:55:00,38.0,27.0,-100.00,North,10,10.0,12.0,63,0.00,,,-99.99,,2013-05-04 11:55:00,
2013-05-04 06:05:00,38.0,28.0,-100.00,North,10,11.0,14.0,66,0.00,,,-99.99,,2013-05-04 12:05:00,
2013-05-04 06:13:00,38.0,27.0,-100.00,North,10,11.0,14.0,66,0.00,,,-99.99,,2013-05-04 12:13:00,
2013-05-04 06:27:00,38.0,27.0,-100.00,North,10,14.0,17.0,63,0.00,,,-99.99,,2013-05-04 12:27:00,
2013-05-04 06:36:00,38.0,28.0,-100.00,North,10,14.0,18.0,68,0.00,,,-99.99,,2013-05-04 12:36:00,
2013-05-04 06:51:00,37.0,29.0,-100.00,North,10,16.0,19.0,70,0.00,,,-99.99,,2013-05-04 12:51:00,
2013-05-04 07:01:00,37.0,29.0,-100.00,North,10,14.0,19.0,70,0.00,,,-99.99,,2013-05-04 13:01:00,
2013-05-04 07:11:00,38.0,29.0,-100.00,North,10,14.0,18.0,70,0.00,,,-99.99,,2013-05-04 13:11:00,
2013-05-04 07:21:00,38.0,28.0,-100.00,North,10,13.0,17.0,64,0.00,,,-99.99,,2013-05-04 13:21:00,
2013-05-04 07:32:00,39.0,26.0,-100.00,North,10,12.0,15.0,60,0.00,,,-99.99,,2013-05-04 13:32:00,
2013-05-04 07:41:00,40.0,26.0,-100.00,North,10,12.0,18.0,57,0.00,,,-99.99,,2013-05-04 13:41:00,
2013-05-04 07:52:00,40.0,26.0,-100.00,North,10,12.0,17.0,58,0.00,,,-99.99,,2013-05-04 13:52:00,
2013-05-04 08:02:00,40.0,26.0,-100.00,North,10,11.0,14.0,56,0.00,,,-99.99,,2013-05-04 14:02:00,
2013-05-04 08:11:00,41.0,24.0,-100.00,North,10,12.0,17.0,51,0.00,,,-99.99,,2013-05-04 14:11:00,
2013-05-04 08:21:00,41.0,25.0,-100.00,North,10,14.0,21.0,52,0.00,,,-99.99,,2013-05-04 14:21:00,
2013-05-04 08:32:00,41.0,25.0,-100.00,North,10,13.0,22.0,53,0.00,,,-99.99,,2013-05-04 14:32:00,
2013-05-04 08:41:00,41.0,25.0,-100.00,North,10,15.0,21.0,53,0.00,,,-99.99,,2013-05-04 14:41:00,
2013-05-04 08:51:00,42.0,26.0,-100.00,North,10,9.0,20.0,54,0.00,,,-99.99,,2013-05-04 14:51:00,
2013-05-04 09:02:00,42.0,27.0,-100.00,North,10,14.0,22.0,55,0.00,,,-99.99,,2013-05-04 15:02:00,
2013-05-04 09:11:00,42.0,28.0,-100.00,North,10,16.0,24.0,57,0.00,,,-99.99,,2013-05-04 15:11:00,
2013-05-04 09:22:00,42.0,28.0,-100.00,North,10,15.0,22.0,58,0.00,,,-99.99,,2013-05-04 15:22:00,
2013-05-04 09:33:00,43.0,28.0,-100.00,North,10,12.0,19.0,55,0.00,,,-99.99,,2013-05-04 15:33:00,
2013-05-04 09:43:00,42.0,26.0,-100.00,North,10,12.0,23.0,52,0.00,,,-99.99,,2013-05-04 15:43:00,
2013-05-04 09:52:00,43.0,27.0,-100.00,North,10,12.0,19.0,53,0.00,,,-99.99,,2013-05-04 15:52:00,
2013-05-04 10:03:00,43.0,24.0,-100.00,North,8,12.0,20.0,46,0.00,,,-99.99,,2013-05-04 16:03:00,
2013-05-04 10:12:00,43.0,19.0,-100.00,North,8,14.0,26.0,37,0.00,,,-99.99,,2013-05-04 16:12:00,
2013-05-04 10:22:00,43.0,22.0,-100.00,North,10,15.0,23.0,42,0.00,,,-99.99,,2013-05-04 16:22:00,
2013-05-04 10:33:00,43.0,23.0,-100.00,North,8,14.0,22.0,44,0.00,,,-99.99,,2013-05-04 16:33:00,
2013-05-04 10:42:00,44.0,21.0,-100.00,North,10,14.0,22.0,38,0.00,,,-99.99,,2013-05-04 16:42:00,
2013-05-04 10:52:00,44.0,20.0,-100.00,North,8,14.0,24.0,38,0.00,,,-99.99,,2013-05-04 16:52:00,
2013-05-04 11:02:00,45.0,21.0,-100.00,North,8,13.0,24.0,39,0.00,,,-99.99,,2013-05-04 17:02:00,
2013-05-04 11:12:00,45.0,21.0,-100.00,North,8,14.0,21.0,38,0.00,,,-99.99,,2013-05-04 17:12:00,
2013-05-04 11:22:00,45.0,22.0,-100.00,North,8,12.0,24.0,40,0.00,,,-99.99,,2013-05-04 17:22:00,
2013-05-04 11:32:00,46.0,21.0,-100.00,North,8,14.0,24.0,36,0.00,,,-99.99,,2013-05-04 17:32:00,
2013-05-04 11:42:00,46.0,21.0,-100.00,North,8,15.0,27.0,36,0.00,,,-99.99,,2013-05-04 17:42:00,
2013-05-04 11:52:00,46.0,20.0,-100.00,North,8,17.0,32.0,35,0.00,,,-99.99,,2013-05-04 17:52:00,
2013-05-04 12:01:00,46.0,20.0,-100.00,North,8,14.0,22.0,35,0.00,,,-99.99,,2013-05-04 18:01:00,
2013-05-04 12:12:00,46.0,19.0,-100.00,North,8,14.0,23.0,34,0.00,,,-99.99,,2013-05-04 18:12:00,
2013-05-04 12:21:00,47.0,21.0,-100.00,North,8,15.0,24.0,36,0.00,,,-99.99,,2013-05-04 18:21:00,
2013-05-04 12:32:00,46.0,21.0,-100.00,North,8,16.0,23.0,36,0.00,,,-99.99,,2013-05-04 18:32:00,
2013-05-04 12:42:00,45.0,21.0,-100.00,North,8,17.0,27.0,38,0.00,,,-99.99,,2013-05-04 18:42:00,
2013-05-04 12:52:00,47.0,21.0,-100.00,North,8,16.0,25.0,35,0.00,,,-99.99,,2013-05-04 18:52:00,
2013-05-04 13:01:00,47.0,22.0,-100.00,North,8,13.0,20.0,36,0.00,,,-99.99,,2013-05-04 19:01:00,
2013-05-04 13:11:00,46.0,22.0,-100.00,North,8,15.0,24.0,39,0.00,,,-99.99,,2013-05-04 19:11:00,
2013-05-04 13:21:00,46.0,24.0,-100.00,North,8,16.0,27.0,41,0.00,,,-99.99,,2013-05-04 19:21:00,
2013-05-04 13:32:00,46.0,22.0,-100.00,NE,42,16.0,29.0,39,0.00,,,-99.99,,2013-05-04 19:32:00,
2013-05-04 13:42:00,48.0,23.0,-100.00,ENE,73,16.0,25.0,38,0.00,,,-99.99,,2013-05-04 19:42:00,
2013-05-04 13:52:00,47.0,24.0,-100.00,ENE,65,16.0,26.0,40,0.00,,,-99.99,,2013-05-04 19:52:00,
2013-05-04 14:02:00,46.0,23.0,-100.00,ENE,69,16.0,24.0,40,0.00,,,-99.99,,2013-05-04 20:02:00,
2013-05-04 14:11:00,47.0,23.0,-100.00,East,82,15.0,24.0,38,0.00,,,-99.99,,2013-05-04 20:11:00,
2013-05-04 14:22:00,46.0,22.0,-100.00,East,86,13.0,24.0,37,0.00,,,-99.99,,2013-05-04 20:22:00,
2013-05-04 14:32:00,47.0,23.0,-100.00,East,79,16.0,25.0,40,0.00,,,-99.99,,2013-05-04 20:32:00,
2013-05-04 14:42:00,47.0,23.0,-100.00,East,79,14.0,24.0,37,0.00,,,-99.99,,2013-05-04 20:42:00,
2013-05-04 14:51:00,47.0,22.0,-100.00,ENE,71,16.0,27.0,37,0.00,,,-99.99,,2013-05-04 20:51:00,
2013-05-04 15:02:00,47.0,24.0,-100.00,East,88,13.0,23.0,39,0.00,,,-99.99,,2013-05-04 21:02:00,
2013-05-04 15:11:00,48.0,23.0,-100.00,East,85,13.0,23.0,38,0.00,,,-99.99,,2013-05-04 21:11:00,
2013-05-04 15:22:00,47.0,22.0,-100.00,ENE,71,16.0,24.0,37,0.00,,,-99.99,,2013-05-04 21:22:00,
2013-05-04 15:33:00,47.0,23.0,-100.00,ENE,76,16.0,26.0,37,0.00,,,-99.99,,2013-05-04 21:33:00,
2013-05-04 15:43:00,46.0,23.0,-100.00,East,83,17.0,28.0,40,0.00,,,-99.99,,2013-05-04 21:43:00,
2013-05-04 15:52:00,46.0,22.0,-100.00,ENE,76,16.0,26.0,39,0.00,,,-99.99,,2013-05-04 21:52:00,
2013-05-04 16:03:00,46.0,24.0,-100.00,ENE,75,15.0,29.0,43,0.00,,,-99.99,,2013-05-04 22:03:00,
2013-05-04 16:12:00,45.0,23.0,-100.00,East,79,15.0,22.0,41,0.00,,,-99.99,,2013-05-04 22:12:00,
2013-05-04 16:22:00,46.0,23.0,-100.00,ENE,78,16.0,23.0,40,0.00,,,-99.99,,2013-05-04 22:22:00,
2013-05-04 16:33:00,45.0,23.0,-100.00,ENE,72,17.0,25.0,41,0.00,,,-99.99,,2013-05-04 22:33:00,
2013-05-04 16:42:00,45.0,23.0,-100.00,East,80,16.0,23.0,41,0.00,,,-99.99,,2013-05-04 22:42:00,
2013-05-04 16:52:00,45.0,24.0,-100.00,ENE,78,15.0,24.0,42,0.00,,,-99.99,,2013-05-04 22:52:00,
2013-05-04 17:02:00,45.0,24.0,-100.00,East,85,15.0,29.0,44,0.00,,,-99.99,,2013-05-04 23:02:00,
2013-05-04 17:11:00,44.0,24.0,-100.00,ENE,78,15.0,26.0,45,0.00,,,-99.99,,2013-05-04 23:11:00,
2013-05-04 17:21:00,44.0,24.0,-100.00,ENE,72,16.0,24.0,46,0.00,,,-99.99,,2013-05-04 23:21:00,
2013-05-04 17:32:00,45.0,24.0,-100.00,ENE,78,16.0,24.0,44,0.00,,,-99.99,,2013-05-04 23:32:00,
2013-05-04 17:42:00,45.0,25.0,-100.00,ENE,78,16.0,21.0,46,0.00,,,-99.99,,2013-05-04 23:42:00,
2013-05-04 17:52:00,44.0,25.0,-100.00,ENE,72,17.0,24.0,46,0.00,,,-99.99,,2013-05-04 23:52:00,
2013-05-04 18:01:00,44.0,25.0,-100.00,ENE,73,17.0,24.0,47,0.00,,,-99.99,,2013-05-05 00:01:00,
2013-05-04 18:11:00,44.0,25.0,-100.00,ENE,78,17.0,24.0,48,0.00,,,-99.99,,2013-05-05 00:11:00,
2013-05-04 18:21:00,43.0,26.0,-100.00,ENE,76,17.0,24.0,50,0.00,,,-99.99,,2013-05-05 00:21:00,
2013-05-04 18:32:00,43.0,26.0,-100.00,East,79,18.0,23.0,51,0.00,,,-99.99,,2013-05-05 00:32:00,
2013-05-04 18:42:00,43.0,27.0,-100.00,ENE,78,17.0,24.0,52,0.00,,,-99.99,,2013-05-05 00:42:00,
2013-05-04 18:51:00,43.0,26.0,-100.00,East,85,17.0,26.0,52,0.00,,,-99.99,,2013-05-05 00:51:00,
2013-05-04 19:01:00,42.0,26.0,-100.00,East,80,17.0,22.0,53,0.00,,,-99.99,,2013-05-05 01:01:00,
2013-05-04 19:11:00,41.0,26.0,-100.00,East,79,17.0,23.0,54,0.00,,,-99.99,,2013-05-05 01:11:00,
2013-05-04 19:21:00,41.0,26.0,-100.00,East,79,18.0,26.0,55,0.00,,,-99.99,,2013-05-05 01:21:00,
2013-05-04 19:32:00,40.0,26.0,-100.00,East,79,18.0,22.0,57,0.00,,,-99.99,,2013-05-05 01:32:00,
2013-05-04 19:42:00,40.0,26.0,-100.00,East,82,17.0,22.0,57,0.00,,,-99.99,,2013-05-05 01:42:00,
2013-05-04 19:52:00,40.0,26.0,-100.00,East,85,15.0,20.0,58,0.00,,,-99.99,,2013-05-05 01:52:00,
2013-05-04 20:02:00,40.0,27.0,-100.00,East,85,14.0,20.0,60,0.00,,,-99.99,,2013-05-05 02:02:00,
2013-05-04 20:11:00,39.0,27.0,-100.00,East,83,15.0,20.0,61,0.00,,,-99.99,,2013-05-05 02:11:00,
2013-05-04 20:21:00,39.0,27.0,-100.00,East,83,15.0,20.0,62,0.00,,,-99.99,,2013-05-05 02:21:00,
2013-05-04 20:31:00,38.0,27.0,-100.00,East,86,14.0,21.0,63,0.00,,,-99.99,,2013-05-05 02:31:00,
2013-05-04 20:42:00,38.0,27.0,-100.00,East,85,13.0,17.0,64,0.00,,,-99.99,,2013-05-05 02:42:00,
2013-05-04 20:52:00,38.0,27.0,-100.00,East,89,12.0,17.0,64,0.00,,,-99.99,,2013-05-05 02:52:00,
2013-05-04 21:01:00,38.0,27.0,-100.00,East,90,11.0,16.0,64,0.00,,,-99.99,,2013-05-05 03:01:00,
2013-05-04 21:11:00,37.0,27.0,-100.00,East,90,11.0,18.0,65,0.00,,,-99.99,,2013-05-05 03:11:00,
2013-05-04 21:21:00,37.0,26.0,-100.00,East,92,10.0,16.0,64,0.00,,,-99.99,,2013-05-05 03:21:00,
2013-05-04 21:33:00,37.0,26.0,-100.00,East,95,11.0,21.0,65,0.00,,,-99.99,,2013-05-05 03:33:00,
2013-05-04 21:42:00,37.0,26.0,-100.00,East,100,12.0,21.0,66,0.00,,,-99.99,,2013-05-05 03:42:00,
2013-05-04 21:53:00,37.0,26.0,-100.00,ESE,104,15.0,19.0,63,0.00,,,-99.99,,2013-05-05 03:53:00,
2013-05-04 22:02:00,36.0,25.0,-100.00,ESE,106,16.0,20.0,63,0.00,,,-99.99,,2013-05-05 04:02:00,
2013-05-04 22:12:00,36.0,25.0,-100.00,ESE,104,17.0,21.0,63,0.00,,,-99.99,,2013-05-05 04:12:00,
2013-05-04 22:22:00,36.0,25.0,-100.00,ESE,104,17.0,24.0,62,0.00,,,-99.99,,2013-05-05 04:22:00,
2013-05-04 22:32:00,36.0,25.0,-100.00,ESE,104,18.0,26.0,63,0.00,,,-99.99,,2013-05-05 04:32:00,
2013-05-04 22:43:00,35.0,26.0,-100.00,ESE,107,13.0,19.0,68,0.00,,,-99.99,,2013-05-05 04:43:00,
2013-05-04 22:52:00,35.0,26.0,-100.00,ESE,113,14.0,19.0,67,0.00,,,-99.99,,2013-05-05 04:52:00,
2013-05-04 23:02:00,36.0,26.0,-100.00,ESE,110,17.0,22.0,66,0.00,,,-99.99,,2013-05-05 05:02:00,
2013-05-04 23:12:00,35.0,26.0,-100.00,ESE,110,17.0,22.0,66,0.00,,,-99.99,,2013-05-05 05:12:00,
2013-05-04 23:21:00,35.0,25.0,-100.00,ESE,110,17.0,22.0,66,0.00,,,-99.99,,2013-05-05 05:21:00,
2013-05-04 23:31:00,35.0,26.0,-100.00,ESE,114,16.0,21.0,67,0.00,,,-99.99,,2013-05-05 05:31:00,
2013-05-04 23:42:00,35.0,26.0,-100.00,ESE,114,16.0,21.0,70,0.00,,,-99.99,,2013-05-05 05:42:00,
2013-05-04 23:51:00,35.0,26.0,-100.00,ESE,114,17.0,22.0,71,0.00,,,-99.99,,2013-05-05 05:51:00,